Home > Weather > Grand Prairie > Past weeks

Flag for USA Weather for the Past 2 Weeks in Grand Prairie, Texas, USA

Now
66 °F

Sunny.


Feels Like: 66 °F
Forecast: 48 / 73 °F
Wind: 5 mph from Northeast

Location: Grand Prairie Municipal Airport

Current Time: May 3, 2016 at 12:21:25 PM

Latest Report: May 3, 2016 at 11:50 AM


Visibility: 10 mi

Pressure: 30.15 "Hg

Humidity: 37%

Dew Point: 39 °F

Location of Grand PrairieLocation

Historic Weather in Grand Prairie — Graph

°F

Grand Prairie Temperature Yesterday

Maximum temperature yesterday: 65 °F (at 12:15 AM)
Minimum temperature yesterday: 54 °F (at 6:35 AM)
Average temperature yesterday: 58 °F

High & Low Weather Summary for the Past Weeks

 TemperatureHumidityPressure
High84 °F (Apr 23, 12:50 PM)100% (Apr 18, 10:50 AM)30.18 "Hg (Apr 18, 10:50 AM)
Low52 °F (May 3, 6:35 AM)21% (Apr 27, 12:50 PM)29.55 "Hg (Apr 29, 5:50 PM)
Average68 °F70%29.92 "Hg
* Reported Apr 18 10:50 AM — May 3 10:50 AM, Grand Prairie, Weather by CustomWeather, © 2016

Note: Actual official high and low records may vary slightly from our data, if they occured in-between our weather recording intervals... More about our weather records

Advertising

Grand Prairie Weather History for the Previous 24 Hours

Scroll right to see more
 ConditionsComfort  
Time TempWeatherWind HumidityBarometerVisibility
10:50 AM
Tue, May 3
64 °FSunny.5 mph46%30.16 "Hg10 mi
9:50 AM63 °FSunny.5 mph52%30.15 "Hg10 mi
8:50 AM59 °FSunny.No wind68%30.15 "Hg10 mi
7:50 AM54 °FSunny.3 mph82%30.13 "Hg10 mi
6:50 AM54 °FClear.No wind77%30.11 "Hg10 mi
6:35 AM52 °FClear.No wind81%30.11 "Hg10 mi
6:15 AM53 °FClear.No wind79%30.11 "Hg10 mi
5:55 AM53 °FClear.No wind79%30.10 "Hg10 mi
5:35 AM53 °FClear.No wind77%30.10 "Hg10 mi
5:15 AM53 °FClear.No wind78%30.10 "Hg10 mi
4:55 AM53 °FClear.No wind78%30.10 "Hg10 mi
4:35 AM53 °FClear.No wind79%30.10 "Hg10 mi
4:15 AM53 °FClear.No wind77%30.10 "Hg10 mi
3:55 AM54 °FClear.No wind75%30.10 "Hg10 mi
3:35 AM54 °FClear.No wind73%30.10 "Hg10 mi
3:15 AM55 °FClear.No wind71%30.10 "Hg10 mi
2:55 AM53 °FClear.No wind76%30.11 "Hg10 mi
2:35 AM53 °FClear.No wind77%30.11 "Hg10 mi
1:55 AM55 °FClear.No wind72%30.12 "Hg10 mi
1:35 AM56 °FClear.No wind67%30.13 "Hg10 mi
1:15 AM54 °FClear.No wind71%30.13 "Hg10 mi
12:35 AM56 °FClear.No wind68%30.13 "Hg10 mi
11:55 PM
Mon, May 2
55 °FClear.No wind70%30.14 "Hg10 mi
11:35 PM56 °FClear.No wind67%30.14 "Hg10 mi
10:55 PM56 °FClear.3 mph68%30.14 "Hg10 mi
10:15 PM56 °FClear.3 mph71%30.13 "Hg10 mi
9:55 PM56 °FClear.3 mph70%30.13 "Hg10 mi
9:35 PM57 °FClear.3 mph68%30.13 "Hg10 mi
9:15 PM58 °FPassing clouds.6 mph67%30.13 "Hg10 mi
8:55 PM60 °FOvercast.9 mph61%30.12 "Hg10 mi
8:15 PM61 °FPartly sunny.7 mph60%30.11 "Hg10 mi
7:50 PM63 °FPartly sunny.9 mph56%30.11 "Hg10 mi
6:50 PM63 °FOvercast.16 mph56%30.10 "Hg10 mi
5:50 PM63 °FOvercast.9 mph56%30.10 "Hg10 mi
4:50 PM63 °FPartly sunny.6 mph56%30.11 "Hg10 mi
3:50 PM63 °FPartly sunny.7 mph56%30.13 "Hg10 mi
2:50 PM61 °FScattered clouds.16 mph59%30.12 "Hg10 mi
1:50 PM61 °FSunny.9 mph59%30.13 "Hg10 mi
12:50 PM59 °FSunny.10 mph63%30.18 "Hg10 mi
Weather by CustomWeather, © 2016

See weather overviewHow to use our weather pages